Location: Unspecified
(0.0000°N, 0.0000°E)
Time: 09:49:02
(UTC+00:00)

Vanguard 3 - Pass Details

Date: 29 September 2023
Orbit: 507 x 3241 km, 33.3° (Epoch: 06 December)

Event Time Altitude Azimuth Distance (km) Brightness Sun altitude
Rises 11:46:21 0° 221° (SW) 6,320 11.7 87.4°
Reaches altitude 10° 11:50:42 10° 213° (SSW) 5,603 11.6 87.6°
Maximum altitude 12:07:28 41° 148° (SSE) 4,151 11.4 85.1°
Drops below altitude 10° 12:24:34 10° 84° (E) 5,774 11.5 81.1°
Sets 12:29:02 0° 77° (ENE) 6,529 11.7 80.0°
